Location: Brantley
(31.5822°N, 86.2569°W)
Time: 17:10:39
(UTC+00:00)

Injun/Solrad 3 - Pass Details

Date: 25 February 2026
Orbit: 871 x 985 km, 66.8° (Epoch: 11 March)

Event Time Altitude Azimuth Distance (km) Brightness Sun altitude
Rises 13:51:49 0° 177° (S) 3,442 11.2 18.6°
Reaches altitude 10° 13:54:33 10° 167° (SSE) 2,507 10.8 19.2°
Maximum altitude 13:59:30 30° 107° (ESE) 1,512 11.3 20.1°
Drops below altitude 10° 14:04:31 10° 48° (NE) 2,542 10.6 21.1°
Sets 14:07:18 0° 38° (NE) 3,498 11.1 21.6°
